Location: *
(57.8420°S, 159.8600°W)
Time: 05:06:08
(UTC+00:00)

Cosmos 1184 Rocket - Pass Details

Date: 18 May 2021
Orbit: 401 x 414 km, 81.2° (Epoch: 20 June)

Event Time Altitude Azimuth Distance (km) Brightness Sun altitude
Rises 03:28:03 0° 325° (NW) 2,363 7.7 -7.9°
Reaches altitude 10° 03:30:11 10° 315° (NW) 1,505 6.9 -8.2°
Maximum altitude 03:33:14 35° 247° (WSW) 706 4.4 -8.5°
Drops below altitude 10° 03:36:18 10° 178° (S) 1,518 5.3 -8.9°
Sets 03:38:28 0° 169° (S) 2,386 6.2 -9.2°
Enters shadow 03:38:31 - 169° (SSE) 2,409 6.3 -9.2°
